Theta_e
309 307 308 308 308 307 305 297 295 309 309 299 297 294 300 304 305 311 309 308 305 302 301 299 299 298 300 303 300 296 295 289 285 289 294 295 291 288 287 283 282 281 281 283
309 307 307 307 307 307 303 296 297 313 313 296 295 299 302 305 304 305 306 304 307 306 300 295 300 303 304 302 301 297 295 287 284 286 289 293 293 293 290 286 284 282 281 283
307 307 307 307 307 307 304 298 296 304 308 306 299 296 298 298 302 305 306 304 305 300 299 299 297 301 306 303 305 310 301 288 286 283 285 290 288 291 292 288 283 284 284 287
307 307 308 307 307 307 304 299 295 301 295 298 300 298 298 297 296 302 302 300 301 298 292 296 297 300 300 302 306 298 294 289 289 290 294 293 292 292 292 289 289 286 289 288
306 307 307 308 308 307 300 294 296 299 300 300 298 296 295 296 297 300 299 298 302 298 294 296 294 299 297 296 297 295 292 288 289 288 294 295 292 295 295 294 295 290 291 292
306 307 307 308 308 306 296 297 300 299 298 297 295 297 298 299 298 299 303 300 298 297 299 301 301 301 299 299 295 292 290 289 286 284 293 293 287 293 295 295 296 295 289 293
306 306 307 308 308 308 304 301 301 296 294 298 299 301 302 301 299 298 301 299 296 301 304 301 299 298 300 301 299 296 291 289 288 285 290 282 292 299 298 295 296 297 296 297
305 306 306 308 308 308 302 303 301 299 296 300 301 301 301 301 301 300 302 304 304 301 296 291 288 289 293 298 300 297 295 292 287 285 284 291 295 296 294 291 292 297 295 297
306 306 306 307 308 307 300 301 301 302 301 296 303 300 299 296 295 299 302 305 304 299 293 289 282 283 288 291 294 297 298 294 290 285 282 282 291 297 299 299 289 297 297 295
305 305 306 307 307 307 303 299 300 298 298 301 302 297 297 300 296 294 297 300 301 298 290 288 287 287 294 288 289 290 290 290 287 286 285 290 297 298 300 289 288 297 297 296
306 306 306 306 307 307 304 298 302 299 295 299 305 305 298 299 297 293 297 297 299 297 291 290 290 288 291 290 294 290 290 290 287 288 284 283 297 294 288 291 293 296 296 295
306 306 306 307 307 308 306 295 301 302 296 299 306 307 309 305 304 299 299 299 298 300 293 292 292 291 291 289 287 294 286 292 287 287 289 296 296 291 295 293 292 292 293 295
306 307 307 308 308 307 306 300 296 297 297 301 302 304 309 308 307 308 300 301 304 302 302 295 294 290 291 286 286 290 291 290 288 287 288 289 294 293 293 292 291 292 293 293
306 307 308 308 307 307 306 300 297 297 298 297 302 312 309 314 310 309 306 305 304 303 300 295 291 290 294 289 286 285 287 287 284 284 286 289 291 291 291 292 293 292 293 293
307 307 308 308 307 307 305 304 299 299 299 296 298 305 310 310 310 309 304 300 300 298 293 291 290 294 292 291 286 284 287 285 282 280 288 286 287 292 294 291 292 293 293 293
308 308 308 308 308 306 303 301 301 302 302 298 294 305 306 308 310 309 306 300 299 297 293 290 292 294 290 281 277 287 289 290 289 286 290 289 292 291 292 290 290 291 291 292
308 308 308 308 308 300 303 302 305 304 303 300 297 296 301 308 308 307 304 298 296 296 293 292 290 291 290 281 277 288 291 291 291 294 291 290 291 288 290 290 289 289 288 289
307 308 308 308 308 305 304 306 307 306 302 303 296 296 299 305 301 299 304 299 296 293 290 291 292 291 288 280 287 291 293 293 292 293 292 290 291 290 289 289 287 287 286 286
307 308 309 305 302 304 304 312 310 305 302 298 299 294 292 304 300 304 305 297 294 294 289 288 291 286 281 287 289 289 290 290 289 292 291 291 289 289 288 287 286 285 285 286
306 305 304 302 303 308 310 305 302 302 302 301 297 300 295 299 298 297 295 294 291 288 290 293 286 286 290 291 292 291 292 293 293 289 287 288 287 288 288 288 288 287 287 287
296 293 296 298 304 303 302 300 300 299 296 298 299 299 297 302 293 293 295 291 290 285 288 289 283 288 290 293 292 293 292 292 292 292 291 291 290 289 289 289 287 288 288 287
299 299 302 300 300 302 301 298 299 298 296 302 298 300 301 299 297 294 293 291 292 287 291 286 284 288 291 293 293 294 291 292 292 292 291 291 290 290 290 289 287 286 286 287
303 299 298 299 301 292 296 294 295 295 300 301 301 300 298 297 297 294 292 290 288 292 287 284 286 289 291 291 292 291 292 294 293 292 291 290 288 288 287 286 287 287 286 286
297 299 286 296 295 298 300 296 297 299 299 298 297 296 296 294 291 290 288 288 290 284 282 284 287 288 289 290 291 291 291 293 292 291 288 287 287 286 287 287 287 286 286 286
297 299 288 295 300 304 305 301 301 303 301 299 297 295 294 290 290 288 286 284 283 282 281 287 287 288 289 289 289 290 292 292 291 289 288 287 287 286 286 287 287 287 286 286
298 297 295 299 301 300 302 302 302 301 299 298 297 291 288 288 288 287 285 283 280 283 288 287 287 288 288 287 289 292 293 291 289 288 288 287 287 286 286 287 287 287 287 286
300 298 299 298 301 302 305 305 303 300 299 295 292 289 288 289 287 286 287 284 287 289 287 287 288 288 286 287 289 289 290 290 288 287 287 287 288 287 286 285 286 286 287 286
Wind_Speed
25 29 29 30 30 30 10 5 4 3 1 4 1 3 6 6 7 2 3 4 5 5 5 2 5 0 1 4 3 5 3 7 5 3 3 1 3 5 6 7 5 2 4 8
25 27 29 30 30 24 6 5 4 4 3 2 3 5 4 6 4 4 3 3 5 4 5 1 3 7 4 3 3 7 6 3 5 7 7 6 6 4 5 6 4 5 6 8
25 28 29 31 32 28 2 2 4 6 5 1 3 5 3 4 6 3 4 2 4 4 3 1 4 6 4 2 4 10 9 4 7 8 7 4 4 3 5 6 4 3 6 5
26 26 27 30 31 32 1 1 2 1 4 5 8 4 4 3 2 3 6 6 4 4 3 4 5 4 2 7 5 5 5 4 2 3 6 3 3 3 5 5 5 6 6 4
26 24 25 26 28 30 5 4 4 5 3 4 4 3 7 5 4 3 3 6 1 2 5 4 3 2 1 2 5 4 3 1 3 1 2 4 3 2 2 3 3 3 6 3
25 23 24 23 23 17 4 4 3 1 5 6 3 6 6 7 2 8 3 4 5 4 3 4 4 3 1 4 7 3 4 6 4 4 1 4 3 5 4 5 6 3 1 3
24 23 23 21 20 14 2 2 3 3 4 4 4 9 5 11 7 4 5 5 4 2 5 0 4 6 8 10 8 2 6 6 3 2 4 4 2 7 11 10 6 6 4 7
24 23 22 19 18 17 3 1 2 3 3 4 8 14 6 9 8 7 5 7 3 5 6 5 5 5 3 5 7 8 4 5 4 5 4 4 2 3 4 3 1 4 4 7
23 23 21 19 18 19 3 2 1 2 3 4 6 5 5 3 6 8 5 4 5 6 4 4 3 4 3 2 1 5 7 7 6 2 4 6 3 3 5 2 2 2 3 5
23 22 21 19 18 17 6 3 1 1 1 4 5 4 3 4 4 1 5 8 10 5 3 4 2 1 1 4 3 5 5 5 4 2 3 3 2 5 5 3 1 3 3 5
23 22 20 18 17 15 7 4 3 2 1 6 3 3 2 4 2 2 5 4 5 5 5 3 1 3 2 5 2 2 3 1 1 2 2 3 4 4 3 3 1 3 3 6
23 22 20 18 15 11 8 2 3 1 2 6 3 6 8 6 4 5 3 4 2 3 4 2 3 4 4 2 2 4 3 2 3 3 2 3 2 0 6 3 3 5 7 11
22 21 19 17 14 11 4 2 2 2 1 5 4 4 4 2 3 4 4 2 3 3 2 3 2 6 2 3 1 3 3 4 4 3 2 5 4 5 6 5 6 11 11 12
22 20 18 16 14 9 4 2 2 1 1 2 6 4 5 8 6 7 2 4 5 5 4 4 4 4 2 3 3 4 3 3 1 2 4 7 3 5 9 12 11 13 14 15
22 20 18 17 13 7 3 2 3 2 2 1 5 7 3 7 3 9 8 6 4 4 5 5 2 2 5 3 3 3 2 2 3 4 1 3 6 8 12 13 15 15 15 16
24 22 19 15 8 1 1 2 2 5 3 2 3 4 5 5 6 8 7 4 4 4 4 2 1 1 5 4 2 1 4 5 5 1 4 4 8 9 13 15 17 17 18 16
24 22 18 11 2 3 1 2 1 6 2 2 4 5 4 4 4 4 4 4 3 5 3 3 3 3 4 4 3 4 5 5 3 5 5 3 8 8 14 14 16 17 17 16
26 22 13 4 8 4 2 2 7 4 1 2 1 4 4 4 3 3 2 3 2 5 3 2 3 3 3 4 2 5 6 4 4 7 8 4 6 8 10 12 14 15 15 16
25 16 3 4 1 1 2 7 6 1 2 1 1 1 3 2 2 3 4 3 3 1 3 2 4 2 2 4 6 6 4 3 1 5 4 4 5 7 10 13 16 13 14 14
17 3 3 1 1 12 4 3 2 2 1 1 3 2 3 3 1 1 0 2 2 2 2 3 4 2 2 3 7 7 5 5 2 2 4 4 7 7 8 11 10 11 12 12
6 6 2 4 13 1 1 1 2 1 2 3 4 5 2 2 3 3 2 3 1 3 4 4 1 2 4 7 6 6 6 6 7 5 3 3 5 6 7 8 12 11 12 12
3 4 5 3 3 2 1 3 1 3 4 3 4 4 5 2 3 3 1 2 2 2 2 5 1 3 6 9 9 8 6 6 8 5 3 3 5 5 6 6 7 7 7 9
2 2 3 2 2 2 4 4 3 2 3 3 2 2 2 2 3 3 2 2 2 2 4 3 4 5 6 8 6 6 5 7 6 5 3 3 5 6 5 5 6 6 7 8
2 2 4 5 4 5 5 5 5 5 3 2 2 1 2 0 2 2 2 0 3 2 1 5 3 7 8 7 5 6 7 6 6 6 4 4 4 4 5 5 5 5 6 7
3 2 5 6 5 4 1 2 3 2 3 3 2 3 3 1 3 2 3 3 1 4 5 4 4 8 7 7 6 6 8 6 6 5 4 2 0 2 4 5 5 4 5 5
3 5 3 5 1 3 2 2 2 1 3 2 3 3 2 0 3 1 3 3 4 4 3 3 7 8 7 6 6 7 6 6 5 4 3 3 3 4 5 6 5 5 3 4
4 5 4 4 5 5 4 4 4 2 3 2 3 2 4 2 3 1 4 5 4 4 3 4 7 10 8 6 7 6 6 5 5 4 4 3 3 4 4 6 4 4 4 3
Wind_Direction
343 343 342 340 345 343 2 345 346 340 348 55 36 154 191 213 235 195 151 124 108 147 188 203 169 258 224 275 165 158 126 127 136 169 338 131 98 144 132 128 226 210 164 270
340 343 345 343 343 350 313 316 277 310 99 48 336 304 273 214 206 159 121 160 166 178 154 198 155 226 235 34 204 159 183 26 75 358 0 8 103 129 108 115 86 194 147 263
346 347 347 346 342 340 169 311 1 331 32 187 45 329 318 359 353 75 122 177 96 125 52 128 269 199 293 45 38 60 85 101 145 175 192 157 131 104 94 104 112 200 224 265
349 349 348 348 343 342 178 25 357 156 341 2 348 323 308 316 90 59 25 23 139 142 102 46 1 30 299 45 9 52 85 120 120 128 135 135 158 173 143 167 191 155 260 148
350 349 351 350 348 343 63 51 10 348 302 298 248 322 349 29 20 73 25 113 122 162 139 167 131 10 148 189 30 66 27 118 83 170 217 142 125 28 211 84 24 115 126 153
350 349 353 353 356 357 20 333 326 345 294 332 18 352 328 349 29 13 80 121 91 102 160 180 211 218 298 227 140 119 91 127 92 227 195 105 3 343 359 91 52 1 134 345
350 350 354 354 358 12 304 330 304 359 328 11 1 341 8 27 349 70 338 45 98 287 0 343 48 37 60 46 14 57 124 106 108 159 87 202 119 58 75 94 69 48 47 359
348 348 352 354 358 357 329 298 333 358 340 308 347 0 9 3 3 29 33 4 322 309 43 51 29 354 70 41 37 11 49 124 85 142 155 109 265 23 33 44 106 42 4 349
346 348 350 352 353 358 359 301 280 319 324 354 307 337 357 28 338 356 340 339 323 54 74 74 128 199 223 104 63 40 43 58 103 102 140 194 89 343 336 185 198 26 320 288
349 349 350 352 354 355 352 292 20 87 357 279 350 14 330 346 16 349 316 343 351 35 47 69 76 343 329 67 57 352 5 9 72 81 101 104 329 311 283 196 101 244 231 270
342 341 341 341 344 351 358 281 333 64 311 281 287 330 331 346 56 85 283 26 350 22 58 93 277 76 75 88 38 73 79 10 73 78 127 200 4 342 10 232 239 257 271 254
339 338 337 335 334 341 350 303 321 36 184 252 274 260 249 213 330 146 15 163 231 207 83 43 92 50 50 99 100 11 39 30 131 114 158 303 286 243 16 7 267 295 299 306
335 333 331 329 328 330 319 278 293 353 326 298 6 4 325 57 228 187 103 308 228 41 146 135 113 78 84 78 58 102 18 33 83 95 254 335 69 57 40 1 334 325 314 310
332 331 330 327 324 319 294 250 209 48 271 44 290 339 355 319 2 51 27 141 49 90 55 77 77 93 32 63 147 106 213 37 31 309 352 344 124 60 352 337 326 309 308 304
333 333 331 328 321 310 267 233 226 196 78 232 286 313 276 309 359 45 44 62 80 54 43 51 77 120 79 46 69 17 11 153 118 235 162 238 284 330 338 332 317 314 311 303
329 331 329 328 322 204 160 346 193 194 188 34 0 285 305 329 352 50 28 61 82 83 108 134 78 68 99 96 123 20 80 57 51 121 281 230 336 326 342 338 332 330 321 313
327 327 325 323 281 145 138 175 253 149 118 41 331 334 294 321 6 2 38 35 67 99 110 66 108 31 77 92 144 169 121 127 120 34 9 7 5 337 343 339 338 335 332 332
327 322 321 319 146 266 6 316 201 143 212 143 357 278 351 3 11 3 327 34 43 17 129 56 89 20 59 70 109 116 152 155 51 63 70 33 333 341 348 349 348 345 349 343
323 322 105 108 48 65 228 341 148 159 131 304 18 205 263 1 0 5 4 41 68 350 93 69 79 342 58 189 152 128 130 117 157 73 48 2 352 1 5 4 6 1 354 349
321 42 25 319 256 322 332 32 50 24 324 62 230 162 265 118 100 280 55 22 110 76 277 98 72 108 40 99 137 151 138 102 77 63 358 352 357 0 6 11 8 9 6 358
26 11 320 306 307 51 73 211 181 177 253 199 239 188 225 227 140 198 185 167 174 92 254 109 355 180 176 156 146 133 126 124 100 99 75 357 354 2 4 18 20 8 9 15
295 288 285 296 330 31 191 225 277 213 230 203 185 223 192 252 112 100 224 124 90 186 146 83 205 226 151 149 143 139 150 136 116 114 90 48 25 19 13 10 5 357 346 359
225 209 271 73 256 31 201 208 257 259 218 223 209 256 177 19 55 72 93 88 196 103 52 201 225 150 138 140 141 147 156 120 137 132 91 65 45 26 24 8 358 357 5 1
234 211 316 178 222 237 200 188 189 229 169 173 150 139 138 36 74 129 99 213 102 89 129 233 206 165 153 157 155 144 136 134 121 132 118 82 42 12 7 6 2 360 2 351
246 176 232 220 231 267 233 176 120 214 156 125 81 48 95 14 101 34 84 152 249 200 219 221 173 151 143 142 143 148 140 144 149 155 144 167 21 345 326 327 333 353 3 359
233 238 271 261 247 306 37 129 207 185 123 78 54 96 71 153 128 128 207 130 223 235 208 159 127 138 143 151 161 144 139 150 162 146 163 195 249 273 281 306 309 313 347 1
243 249 229 239 252 243 239 175 208 170 104 155 116 157 198 118 90 214 170 195 217 180 143 132 142 153 160 155 134 141 149 160 160 170 197 227 270 285 281 283 293 319 343 6